Regional Weather Roundup
Issued by NWS San Angelo, TX

Home | Current Version | Previous Version | Text Only | Print | Product List | Glossary On
Versions: 1 2 3 4 5 6 7 8 9 10 11 12 13 14 15 16 17 18 19 20 21 22 23 24 25 26 27 28 29 30 31 32 33 34 35 36 37 38 39 40 41 42 43 44 45 46 47 48 49 50
000
ASUS44 KSJT 240710
RWRSJT
WEST CENTRAL TEXAS REGIONAL WEATHER ROUNDUP
NATIONAL WEATHER SERVICE SAN ANGELO TX
200 AM CDT TUE APR 24 2018

NOTE: "FAIR" INDICATES FEW OR NO CLOUDS BELOW 12,000 FEET WITH NO
SIGNIFICANT WEATHER AND/OR OBSTRUCTIONS TO VISIBILITY.

TXZ049-054-064>066-071>073-076>078-098-099-113-114-127-128-139-140-
154-155-168>170-240800
...LOCATIONS ACROSS WEST CENTRAL TEXAS...

CITY           SKY/WX    TMP DP  RH WIND       PRES   REMARKS
SAN ANGELO     CLEAR     61  41  47 SE7       30.03F
ABILENE        CLEAR     56  46  69 SE7       30.06R
DYESS AFB      CLEAR     56  42  58 SE7       30.05R
JUNCTION       CLEAR     62  46  55 CALM      30.06S
SWEETWATER     CLEAR     58  41  53 SE9       30.08R
BROWNWOOD      PTCLDY    52  45  76 S6        30.08R
COLEMAN        SUNNY     55  44  64 CALM      30.08R
SONORA         CLEAR     64  46  52 CALM      30.09S
OZONA          FAIR      55  43  62 CALM      30.07S
BRADY          CLEAR     61  43  51 E5        30.06F
$$

TEXAS PANHANDLE/OKLAHOMA PANHANDLE

CITY           SKY/WX    TMP DP  RH WIND       PRES   REMARKS
AMARILLO       CLEAR     54  42  64 SE18      30.06S
BORGER         CLEAR     58  43  57 SE15G21   30.04S
CANADIAN       CLEAR     55  46  70 E3        30.06S
DALHART        CLEAR     52  43  71 SE10      30.05R
DUMAS          SUNNY     52  42  68 SE12      30.05R
GUYMON         NOT AVBL
HEREFORD       SUNNY     54  41  63 S8        30.06S
PAMPA          SUNNY     56  44  64 SE15      30.06F
PERRYTON       CLEAR     54  44  70 SE9       30.06S
$$

SOUTHERN PANHANDLE/SOUTH PLAINS/ROLLING PLAINS

CITY           SKY/WX    TMP DP  RH WIND       PRES   REMARKS
LUBBOCK        CLEAR     58  38  47 SE12      30.05R
SNYDER         CLEAR     61  39  44 E8        30.05S
CHILDRESS      CLEAR     56  43  61 SE8       30.05R
SEMINOLE       SUNNY     58  37  45 SE3       30.05S
$$

PERMIAN BASIN

CITY           SKY/WX    TMP DP  RH WIND       PRES   REMARKS
MIDLAND        CLEAR     66  39  37 SE9       30.03S
ODESSA         CLEAR     65  38  36 E8        30.03F
WINK           CLEAR     67  44  43 SE10      30.00R
$$

FAR WEST/SOUTHWEST MOUNTAINS/TRANS PECOS

CITY           SKY/WX    TMP DP  RH WIND       PRES   REMARKS
ALPINE         SUNNY     66  43  43 CALM      30.16F
DRYDEN           N/A     65  50  58 NE7       30.00F
EL PASO        PTCLDY    68  27  21 CALM      30.02S
FORT STOCKTON  CLEAR     68  49  50 S16       30.02S
GUADALUPE PASS CLEAR     69  31  24 E7        30.15
MARFA          CLEAR     51  30  44 NW5       30.15R
PECOS          SUNNY     61  38  42 E7        29.99S
$$

DALLAS/FORT WORTH METROPLEX

CITY           SKY/WX    TMP DP  RH WIND       PRES   REMARKS
DFW AIRPORT    CLEAR     59  52  77 CALM      30.02F
FTW MEACHAM    CLEAR     58  52  80 N6        30.03F
DAL-EXECUTIVE  CLEAR     60  52  74 CALM      30.03F
GRAND PRAIRIE  CLEAR     60  52  75 CALM      30.05F
ADDISON        CLEAR     60  52  75 CALM      30.06S
MESQUITE       SUNNY     54  52  93 S5        30.04F
LANCASTER      SUNNY     57  52  84 NE5       30.05S
$$

NORTH CENTRAL TEXAS

CITY           SKY/WX    TMP DP  RH WIND       PRES   REMARKS
SHRMAN/DENISON SUNNY     55  50  85 CALM      30.05F
GAINESVILLE    CLEAR     53  47  82 CALM      30.06F
BRIDGEPORT     SUNNY     49  49 100 CALM      30.06F
DENTON         CLEAR     56  52  86 CALM      30.03F
WAXAHACHIE     SUNNY     54  53  94 CALM      30.05F
GRANBURY       SUNNY     55  50  84 CALM      30.05F
$$

WESTERN NORTH TEXAS

CITY           SKY/WX    TMP DP  RH WIND       PRES   REMARKS
WICHITA FALLS  CLEAR     57  48  72 E3        30.04S
VERNON         MOSUNNY   57  47  69 E5        30.05S
BRECKENRIDGE   SUNNY     59  46  62 SE7       30.04S
COMANCHE       CLEAR     58  48  71 S7        30.07S
$$

CENTRAL AND SOUTH CENTRAL TEXAS

CITY           SKY/WX    TMP DP  RH WIND       PRES   REMARKS
AUSTIN/BERGSTM CLEAR     54  53  97 CALM      30.05S
WACO           CLEAR     54  51  90 SW5       30.05R
HILLSBORO      NOT AVBL
TEMPLE         CLEAR     59  52  77 S5        30.08R
KILLEEN-GRAY   CLEAR     58  49  73 CALM      30.07S
FORT HOOD      CLEAR     62  51  68 CALM      30.04R
GEORGETOWN     CLEAR     58  51  78 CALM      30.08S
LAGO VISTA     FAIR      65  50  58 E7        30.07S
SAN MARCOS     CLEAR     58  51  78 CALM      30.05S
NEW BRAUNFELS  CLEAR     57  51  80 CALM      30.03F
RANDOLPH AFB   CLEAR     63  53  71 CALM      30.04F
SAN ANTONIO    PTCLDY    63  52  67 CALM      30.05S
STINSON        CLEAR     61  55  81 CALM      30.02F
PLEASANTON     NOT AVBL
LA GRANGE      CLEAR     61  57  86 CALM      30.04S
GIDDINGS       SUNNY     56  53  91 CALM      30.06S
$$

EAST TEXAS

CITY           SKY/WX    TMP DP  RH WIND       PRES   REMARKS
PARIS          CLEAR     52  50  93 SW5       30.03S
CLARKSVILLE    NOT AVBL
TYLER          CLEAR     54  52  93 CALM      30.03F
LONGVIEW       CLEAR     54  54 100 NW5       30.01F
PALESTINE      MOSUNNY   53  53  99 CALM      30.05S
NACOGDOCHES      N/A     50  49  96 CALM      30.04S
$$

TEXAS HILL COUNTRY AND EDWARDS PLATEAU

CITY           SKY/WX    TMP DP  RH WIND       PRES   REMARKS
LLANO          NOT AVBL
HORSESHOE BAY  FAIR      64  51  62 S3        30.05F
KERRVILLE      CLEAR     61  50  67 CALM      30.06F
FREDERICKSBRG  CLEAR     54  46  75 CALM      30.06F
ROCKSPRINGS    SUNNY     64  48  55 SE7       30.11S
HONDO          CLEAR     63  51  65 CALM      30.04F
UVALDE         SUNNY     59  50  72 E7        30.05S
DEL RIO        CLEAR     69  52  54 SE7       29.99F
$$

SOUTHEAST TEXAS

CITY           SKY/WX    TMP DP  RH WIND       PRES   REMARKS
COLLEGE STN    CLEAR     61  55  81 S3        30.06R
CALDWELL       SUNNY     56  53  91 N3        30.06F
CROCKETT       SUNNY     52  50  93 CALM      30.07S
BRENHAM        CLEAR     57  56  97 CALM      30.06S
HUNTSVILLE     PTCLDY    58  54  86 CALM      30.04F
CONROE         CLEAR     53  53 100 CALM      30.05F
HOUSTON BUSH   FAIR      59  56  89 CALM      30.04F
HOUSTON HOBBY  FAIR      62  57  83 CALM      30.03F
PERLAND        FAIR      59  56  89 CALM      30.05F
WHARTON        SUNNY     60  56  87 CALM      30.06S
$$

THE UPPER TEXAS COAST

CITY           SKY/WX    TMP DP  RH WIND       PRES   REMARKS
ORANGE         FAIR      55  55 100 CALM      30.05F
PORT ARTHUR    FAIR      55  54  96 CALM      30.03F
GALVESTON      FAIR      69  59  70 CALM      30.04F
ANGLETON       FAIR      60  57  89 CALM      30.04F
BAY CITY       FAIR      59  59  98 CALM      30.04F
$$

TEXAS COASTAL BEND, RIO GRANDE PLAINS DEEP SOUTH TEXAS

CITY           SKY/WX    TMP DP  RH WIND       PRES   REMARKS
VICTORIA       CLEAR     62  56  80 W3        30.04F
BEEVILLE       FAIR      59  55  85 CALM      30.03S
ROCKPORT         N/A     66  61  84 SW3       30.02F
PORT ARANSAS   NOT AVBL
PORT LAVACA    SUNNY     62  58  86 CALM      30.03F
CORPUS CHRISTI PTCLDY    59  55  87 S5        30.02F
KINGSVILLE NAS CLEAR     62  57  83 S5        30.02F
COTULLA        PTCLDY    67  52  58 S6        30.01F
LAREDO         PTCLDY    71  58  63 SE10      30.01F
BROWNSVILLE    FAIR      68  64  87 CALM      30.02R
PORT ISABEL    FAIR      68  62  81 SE3       30.00F
HEBBRONVILLE   SUNNY     64  54  69 CALM      30.04F
MCALLEN        PTCLDY    70  63  78 CALM      30.03S
WESLACO        NOT AVBL
FALFURRIAS     MOSUNNY   65  57  75 CALM      30.02F
EDINBURG       SUNNY     65  60  82 CALM      30.02F
$$



USA.gov is the U.S. government's official web portal to all federal, state and local government web resources and services.